This demonstration page uses our WeatherBlox Daily Observations layout. Learn more.

Left ArrowRight Arrow

39.08367, -84.50855

Hourly Observations for December 30, 2014

Temp ( °F °C ) Dew Point ( °F °C ) Humidity (%) Winds ( mph kmh ) Pressure ( in mb ) Visibility ( mi km ) Precip ( " mm )
12:53 am 00:53 Clear 28 -2.2 21 -6.1 75 75 NE 8 13 30.40 1029 10 16 N/A
1:53 am 01:53 Clear 27 -2.8 20 -6.7 75 75 N 5 7 30.41 1030 10 16 N/A
2:53 am 02:53 Clear 26 -3.3 18 -7.8 71 71 NNE 7 11 30.43 1031 10 16 N/A
3:53 am 03:53 Clear 27 -2.8 17 -8.3 66 66 NNE 8 13 30.44 1031 10 16 N/A
4:53 am 04:53 Cloudy 27 -2.8 18 -7.8 69 69 NNE 8 13 30.47 1032 10 16 N/A
5:53 am 05:53 Cloudy 27 -2.8 19 -7.2 72 72 NNE 7 11 30.47 1032 10 16 N/A
6:53 am 06:53 Partly Cloudy 25 -3.9 18 -7.8 75 75 NNE 5 7 30.49 1033 10 16 N/A
7:53 am 07:53 Clear 24 -4.4 18 -7.8 77 77 NNE 3 6 30.53 1034 10 16 N/A
8:53 am 08:53 Sunny 27 -2.8 20 -6.7 75 75 NNE 5 7 30.55 1035 10 16 N/A
9:53 am 09:53 Sunny 29 -1.7 19 -7.2 66 66 NNE 9 15 30.57 1035 10 16 N/A
10:53 am 10:53 Sunny 32 undefined 20 -6.7 61 61 NNE 9 15 30.59 1036 10 16 N/A
11:53 am 11:53 Sunny 33 0.6 18 -7.8 54 54 N 7 11 30.58 1035 10 16 N/A
12:53 pm 12:53 Sunny 34 1.1 18 -7.8 52 52 NNW 9 15 30.55 1035 10 16 N/A
1:53 pm 13:53 Sunny 34 1.1 19 -7.2 54 54 NE 10 17 30.52 1034 10 16 N/A
2:53 pm 14:53 Mostly Sunny 34 1.1 18 -7.8 52 52 N 12 19 30.54 1034 10 16 N/A
3:53 pm 15:53 Sunny 33 0.6 18 -7.8 54 54 N 9 15 30.55 1035 10 16 N/A
4:53 pm 16:53 Sunny 32 undefined 17 -8.3 54 54 NNW 9 15 30.57 1035 10 16 N/A
5:53 pm 17:53 Clear 29 -1.7 17 -8.3 61 61 NNW 7 11 30.57 1035 10 16 N/A
6:53 pm 18:53 Clear 28 -2.2 17 -8.3 63 63 N 5 7 30.58 1035 10 16 N/A
7:53 pm 19:53 Mostly Clear 27 -2.8 17 -8.3 66 66 N 7 11 30.57 1035 10 16 N/A
8:53 pm 20:53 Clear 27 -2.8 17 -8.3 66 66 NNW 7 11 30.58 1036 10 16 N/A
9:53 pm 21:53 Clear 25 -3.9 16 -8.9 69 69 N N/A 30.58 1036 10 16 N/A
10:53 pm 22:53 Clear 24 -4.4 16 -8.9 71 71 NNW 3 6 30.59 1036 10 16 N/A
11:53 pm 23:53 Clear 24 -4.4 18 -7.8 77 77 WNW 6 9 30.60 1036 10 16 N/A

Powered by AerisWeather